loading
DOY 203 | 2024-07-21T09:52:38Z

ARIANE 5 R/B, 54745

Orbit data source: Space-Track

ARIANE 5 R/B, 54745 is space debris in HEO originally from a launch on Tue, 13 Dec 2022 UTC launched from the French Guiana (FRGUI). Debris objects in space refer to the collection of defunct objects orbiting the Earth. Examples of debris include non-operational satellites, rocket bodies, and fragments generated from explosions, collisions, or faulty payload assembly.

Loading next visibility...
Loading greatness...
ARIANE 5 R/B details
NORAD ID54745
COSPAR ID
2022-170E
Orbit
HEO
Last TLE update18 hours ago
Origin
Flag of FRArianespace (FR)
ManufacturerArianeGroup
BusESC-A
MotorUnknown
Mass~5,000 kg wet, ~5,000 kg dry
Launch date (UTC)
2022-12-13 (2 years ago)
Launch vehicleUnknown
Launch site
French Guiana (FRGUI)
Object type
Payload
Rocket body
Debris
Radar Cross SectionLarge (>1 m²)
Predictive object data (real-time)
Latitude-3.65652°
Longitude-0.80329°
Altitude9,822.886 km
Speed5.625 km/s
Apparent Right ascension11h 30m 10s
Apparent Declination-13° 40' 15"
Sunlit
Object is in daylight
Predictive observer data (real-time)
Local Sidereal Time22:50:48
Azimuth339.016° N
Elevation-62.368°
Doppler factor1
Orbital elements
Apogee32,476.011 km
Perigee178.374 km
Semi-major axis22,705.329 km
Eccentricity0.7112347
Inclination6.2847°
RAAN320.3189°
Arg. of periapsis330.763°
True anomaly29.33793°
Mean anomaly3.6112°
Mean motion0.63438 °/min
BSTAR0.0026552
Period567.48 mins
Definitive object data (Epoch: 2024-07-20T15:49:35.755Z)
Latitude-0.00086°
Longitude144.08473°
Altitude519.075 km
Speed9.9 km/s
True Right ascension21h 21m 36s
True Declination0° 00' 03"
Sunlit
Object was in full shadow at TLE epoch
TLE from 18 hours ago
0 ARIANE 5 R/B
1 54745U 22170E   24202.65944161  .00076383  92807-6  26552-2 0  9994
2 54745   6.2847 320.3189 7112347 330.7630   3.6112  2.53845149 13982
Epoch: 2024-07-20T15:49Z
No data available

ARIANE 5 R/B Visibility forecast

Observer location: 39.9160978°, -105.1181434

ARIANE 5 R/B is not visible in the next 10 days
Span
Click to sort rows by Start time (UTC) header in descending order
Start Az.
Max El. time (UTC)
Max El. Az.
Max El.
End time (UTC)
End Az.